RH
25 30 30 24 24 50 70 79 80 84 82 88 90 83 82 75 68 70 78 76 76 83 89 95 91 94 93 85 72 67 64 59
25 30 32 34 32 43 66 80 83 81 85 90 94 92 88 83 74 72 80 82 83 85 92 95 92 92 91 87 80 75 79 65
30 30 33 41 37 39 47 66 76 77 73 75 76 86 78 80 79 80 76 82 86 86 92 93 92 94 90 88 82 71 63 73
33 33 36 43 42 44 40 48 64 74 72 72 73 79 82 88 86 84 83 81 84 86 88 92 95 93 92 93 83 73 66 71
32 33 34 39 42 44 42 42 52 67 71 70 77 73 85 81 79 86 88 83 85 85 86 89 93 93 92 92 87 79 64 68
35 34 32 32 33 42 46 44 45 56 68 66 74 72 68 69 78 84 90 90 88 87 88 89 92 94 92 91 89 79 64 61
60 60 59 61 66 61 51 47 45 51 68 75 77 77 74 77 81 84 91 92 92 91 90 91 92 93 93 93 90 85 74 69
57 60 63 66 71 75 72 48 45 52 68 78 78 78 77 78 77 86 88 92 95 96 94 94 93 91 91 92 92 89 81 69
59 59 61 65 70 74 80 68 54 60 74 80 78 78 78 74 76 86 87 90 91 90 93 93 93 91 92 93 93 92 88 87
66 61 63 63 69 77 84 85 88 94 82 84 84 84 83 81 80 84 87 86 88 93 92 93 92 92 93 94 94 93 92 89
85 79 69 64 66 68 76 84 89 91 94 97 96 90 84 85 84 87 87 88 89 95 94 94 94 94 93 94 93 92 93 93
95 88 84 78 71 67 65 74 81 85 89 92 95 97 96 97 98 97 89 88 87 94 93 95 95 95 94 96 94 94 95 92
96 94 92 85 81 77 75 70 66 70 79 79 84 93 94 95 96 97 98 98 98 96 96 96 95 93 94 94 95 94 95 95
98 97 96 96 90 85 82 81 75 74 69 72 78 79 84 94 95 95 93 94 96 98 99 97 96 94 93 91 91 93 95 93
97 96 97 93 89 89 86 86 81 74 75 77 78 80 81 76 84 92 93 91 92 96 98 99 99 99 99 97 95 94 92 92
84 88 90 90 89 86 85 87 86 80 80 83 86 81 77 78 80 80 83 92 95 96 95 94 94 96 97 99 99 98 97 94
66 72 77 84 86 86 84 88 88 84 85 85 84 85 80 82 79 81 78 81 91 95 92 95 95 94 99 99 97 96 96 98
65 69 69 73 81 84 90 87 85 86 85 82 81 81 82 81 81 78 81 89 88 86 95 94 92 91 99 98 99 90 93 98
63 65 62 64 67 73 73 75 76 77 76 77 81 79 81 82 81 81 81 82 87 87 91 88 92 78 98 97 99 89 89 91
Wind_Speed
20 19 20 23 22 19 21 20 23 23 16 13 10 11 11 12 14 14 19 16 20 16 13 12 13 10 9 10 13 11 10 10
22 18 18 20 19 17 21 21 22 17 14 13 12 12 12 13 14 20 20 17 18 18 13 14 15 14 13 12 11 15 7 11
24 21 18 19 21 20 19 21 21 21 16 16 13 14 15 15 14 16 20 21 19 16 16 16 18 13 15 15 17 13 8 12
24 22 21 16 20 20 20 22 22 21 21 15 13 13 11 11 13 15 18 21 21 21 20 18 18 16 14 15 16 19 12 12
25 25 22 19 18 17 19 20 22 22 23 19 24 18 16 14 14 14 14 22 22 22 20 19 19 15 17 17 15 14 14 15
25 23 22 21 18 16 17 18 20 21 22 23 19 21 17 15 14 18 18 17 20 22 21 21 19 15 17 18 17 19 15 13
11 9 8 8 7 5 10 17 19 21 22 25 24 25 20 15 17 15 14 13 14 20 21 19 20 18 18 18 18 20 17 14
14 14 13 12 11 9 6 15 17 18 23 24 24 24 22 21 21 16 16 12 12 16 19 19 17 19 19 18 19 19 18 15
20 19 17 17 16 15 13 5 14 16 19 22 20 21 14 15 17 13 12 13 15 18 18 18 19 20 18 17 14 15 16 15
19 19 19 18 18 18 16 15 14 13 14 15 17 16 16 15 17 14 11 14 11 15 20 20 19 18 18 18 13 16 16 16
19 18 20 19 18 17 19 19 18 17 14 11 4 8 13 13 12 13 14 13 13 15 18 17 18 18 18 18 15 17 17 14
21 19 20 19 19 20 21 22 22 22 19 17 17 13 12 12 7 3 10 15 16 16 18 16 17 18 17 16 16 16 17 17
18 20 20 20 21 20 21 20 21 21 18 20 20 17 16 16 15 12 10 8 2 15 17 17 17 18 18 19 19 16 18 18
14 15 17 17 18 19 20 19 20 18 19 19 19 19 19 15 16 13 14 13 12 11 5 10 15 13 17 19 17 16 18 19
13 14 15 16 17 16 17 17 17 17 17 18 17 17 15 14 15 11 12 13 14 14 15 14 10 6 3 8 15 16 15 15
15 14 13 12 14 15 14 14 17 16 17 17 16 15 14 12 13 9 12 13 10 10 8 7 9 6 4 4 4 9 14 12
16 14 13 12 12 12 12 12 12 11 13 15 15 14 13 12 13 13 11 12 11 10 10 5 6 7 7 14 5 5 4 1
15 14 14 13 13 11 12 11 10 10 11 12 11 11 11 10 11 11 10 8 6 7 2 4 6 2 9 10 8 6 3 1
14 12 11 11 11 11 10 11 9 11 12 11 11 11 11 10 10 10 11 9 6 5 5 6 1 1 7 6 8 4 2 3
Wind_Direction
255 233 227 225 224 214 199 192 191 189 190 200 200 198 199 193 194 188 188 194 185 174 172 168 170 171 174 178 179 182 181 172
253 239 225 221 215 198 206 197 193 186 187 189 187 195 190 198 199 195 183 191 189 182 176 163 176 180 179 180 180 170 164 168
249 243 233 216 214 206 203 201 195 192 189 195 197 193 197 198 198 193 193 187 185 183 179 179 181 178 180 182 177 174 171 183
244 239 227 213 211 206 205 203 199 198 197 193 195 195 200 199 202 200 196 188 186 185 182 180 181 182 187 185 183 178 174 188
240 236 225 221 214 207 204 202 200 200 200 197 194 191 192 199 202 198 192 191 190 188 186 179 185 184 186 189 184 185 181 185
243 246 242 239 235 206 203 201 206 205 203 204 199 199 196 194 203 197 191 190 191 191 187 182 184 185 189 188 186 189 193 187
28 30 34 8 346 276 227 207 209 208 204 205 201 201 195 190 197 198 193 190 193 189 187 183 182 185 184 189 191 196 192 195
38 37 39 32 18 4 262 229 221 204 203 202 201 202 197 196 199 193 186 188 191 187 182 185 184 186 184 182 188 196 197 200
44 42 43 38 30 26 17 264 228 205 202 201 201 200 195 199 202 193 191 195 191 185 187 187 188 185 183 186 188 196 192 201
43 41 42 39 34 33 31 33 40 25 219 200 200 196 191 196 202 192 193 196 193 185 188 186 187 185 185 184 185 188 198 196
40 34 41 40 39 39 45 42 45 39 30 36 47 202 195 193 197 191 193 192 188 179 184 185 188 181 182 183 189 190 188 193
37 34 35 31 32 40 46 45 43 43 39 38 42 40 55 52 58 81 216 195 190 185 182 182 183 182 181 186 190 183 190 190
49 35 30 27 29 32 36 40 44 42 40 42 42 36 42 56 48 40 39 46 275 185 180 181 184 184 180 185 191 190 192 194
37 38 36 21 26 28 33 31 37 38 37 39 41 38 34 32 47 38 40 45 33 9 118 181 180 185 195 197 200 193 189 192
53 42 43 29 28 25 25 24 32 33 34 35 34 34 23 31 37 29 44 50 44 38 11 40 38 53 90 194 198 194 187 192
53 56 53 40 35 36 23 26 25 24 39 38 27 23 22 14 33 24 37 41 47 51 38 51 40 24 35 76 60 191 189 210
46 48 45 45 34 39 42 32 34 31 32 35 29 28 22 6 12 20 32 33 27 38 33 342 72 28 318 51 21 79 62 360
34 37 33 28 36 31 29 37 23 35 36 21 28 26 17 2 15 11 4 27 46 16 327 31 32 284 19 31 24 83 76 293
22 23 31 28 24 29 26 32 26 27 32 20 16 14 0 2 18 1 353 13 353 348 12 7 319 333 7 14 3 43 47 255